This demonstration page uses our WeatherBlox Daily Observations layout. Learn more.

Left ArrowRight Arrow

Hourly Observations for June 13, 2021

Temp ( °F °C ) Dew Point ( °F °C ) Humidity (%) Winds ( mph kmh ) Pressure ( in mb ) Visibility ( mi km ) Precip ( " mm )
12:53 am 00:53 Clear 52 11.1 40 4.4 64 64 S 3 6 30.06 1018 10 16 N/A
1:53 am 01:53 Clear 47 8.3 39 3.9 74 74 N N/A 30.08 1019 10 16 N/A
2:53 am 02:53 Clear 45 7.2 39 3.9 80 80 N N/A 30.09 1019 10 16 N/A
3:53 am 03:53 Clear 44 6.7 39 3.9 83 83 WNW 3 6 30.10 1019 10 16 N/A
4:53 am 04:53 Clear 43 6.1 38 3.3 82 82 N N/A 30.09 1019 10 16 N/A
5:53 am 05:53 Sunny 44 6.7 41 5 89 89 ENE 5 7 30.09 1019 10 16 N/A
6:53 am 06:53 Sunny 50 10 41 5 71 71 N N/A 30.09 1019 10 16 N/A
7:53 am 07:53 Sunny 58 14.4 43 6.1 58 58 ENE 6 9 30.08 1019 10 16 N/A
8:53 am 08:53 Sunny 65 18.3 46 7.8 51 51 E 7 11 30.07 1018 10 16 N/A
9:53 am 09:53 Sunny 73 22.8 46 7.8 38 38 ENE 9 15 30.06 1018 10 16 N/A
10:53 am 10:53 Sunny 78 25.6 42 5.6 28 28 SE 5 7 30.04 1017 10 16 N/A
11:53 am 11:53 Sunny 79 26.1 42 5.6 27 27 VRB 3 6 30.03 1017 10 16 N/A
12:53 pm 12:53 Sunny 82 27.8 42 5.6 24 24 undefined N/A 30.01 1016 10 16 N/A
1:53 pm 13:53 Sunny 86 30 45 7.2 24 24 E 8 13 29.98 1015 10 16 N/A
2:53 pm 14:53 Sunny 87 30.6 44 6.7 22 22 SSE 8 13 29.97 1015 10 16 N/A
3:53 pm 15:53 Sunny 88 31.1 42 5.6 20 20 VRB 5 7 29.96 1014 10 16 N/A
4:53 pm 16:53 Sunny 91 32.8 44 6.7 20 20 E 8 13 29.93 1014 10 16 N/A
5:53 pm 17:53 Sunny 91 32.8 43 6.1 19 19 ENE 5 7 29.91 1013 10 16 N/A
6:53 pm 18:53 Sunny 90 32.2 43 6.1 19 19 ESE 3 6 29.90 1013 10 16 N/A
7:53 pm 19:53 Sunny 87 30.6 51 10.6 29 29 E 7 11 29.88 1012 10 16 N/A
8:53 pm 20:53 Sunny 81 27.2 51 10.6 35 35 E 13 20 29.88 1012 10 16 N/A
9:53 pm 21:53 Clear 74 23.3 49 9.4 41 41 E 10 17 29.90 1012 10 16 N/A
10:53 pm 22:53 Clear 71 21.7 48 8.9 44 44 E 10 17 29.90 1013 10 16 N/A
11:53 pm 23:53 Clear 69 20.6 47 8.3 45 45 ENE 10 17 29.91 1013 10 16 N/A

Powered by AerisWeather